Location: Unnamed
(23.5608°S, 46.6833°W)
Time: 07:05:13
(UTC-03:00)

IRIDIUM 126 - Visible Passes

Search period start: 30 November 2023 00:00
Search period end: 10 December 2023 00:00
Orbit: 776 x 779 km, 86.4° (Epoch: 29 November)

Date Brightness Start Highest point End Pass type
(mag) Time Alt. Az. Time Alt. Az. Time Alt. Az.
30 Nov ? 20:07:35 10° SSE 20:12:19 33° E 20:12:46 33° E visible
30 Nov ? 21:49:17 10° SW 21:52:39 17° W 21:53:15 17° W visible
01 Dec ? 19:35:26 10° SE 19:38:40 16° E 19:39:45 15° E visible
01 Dec ? 21:14:35 10° SSW 21:19:22 35° W 21:20:15 33° WNW visible
02 Dec ? 20:40:42 10° S 20:45:57 75° W 20:47:16 51° NNW visible
03 Dec ? 20:07:19 10° S 20:12:28 52° E 20:14:18 35° NE visible
03 Dec ? 21:51:25 10° WSW 21:52:35 11° W 21:53:46 10° W visible
04 Dec ? 19:34:34 10° SSE 19:38:52 25° E 19:41:21 18° ENE visible
04 Dec ? 21:15:16 10° SW 21:19:21 23° W 21:21:52 16° WNW visible
05 Dec ? 19:03:15 10° ESE 19:05:10 12° E 19:07:05 10° ENE visible
05 Dec ? 20:40:58 10° SSW 20:46:00 47° W 20:48:57 23° NNW visible
06 Dec ? 20:07:17 10° S 20:12:34 82° E 20:16:05 21° N visible
07 Dec ? 19:34:08 10° SSE 19:39:02 39° E 19:43:14 13° NNE visible
07 Dec ? 21:16:26 10° SW 21:19:17 15° W 21:22:08 10° WNW visible
08 Dec ? 20:41:27 10° SSW 20:46:01 31° W 20:50:32 10° NNW visible
09 Dec ? 20:07:26 10° S 20:12:38 64° W 20:17:47 10° N visible
